Time,TemperatureF,DewpointF,PressureIn,WindDirection,WindDirectionDegrees,WindSpeedMPH,WindSpeedGustMPH,Humidity,HourlyPrecipIn,Conditions,Clouds,dailyrainin,SoftwareType,DateUTC
2013-02-19 00:02:00,46.0,45.0,29.99,West,275,8.0,17.0,95,0.24,,,0.26,,2013-02-19 06:02:00,
2013-02-19 00:11:00,46.0,45.0,29.99,West,275,8.0,17.0,95,0.24,,,0.26,,2013-02-19 06:11:00,
2013-02-19 00:21:00,46.0,45.0,29.99,ESE,104,5.0,17.0,97,0.28,,,0.31,,2013-02-19 06:21:00,
2013-02-19 00:32:00,46.0,46.0,30.00,SE,126,7.0,12.0,100,0.32,,,0.42,,2013-02-19 06:32:00,
2013-02-19 00:42:00,46.0,46.0,30.00,SE,126,7.0,12.0,100,0.32,,,0.42,,2013-02-19 06:42:00,
2013-02-19 00:52:00,45.0,45.0,30.03,West,275,11.0,13.0,100,0.30,,,0.45,,2013-02-19 06:52:00,
2013-02-19 01:01:00,45.0,45.0,30.02,East,93,9.0,11.0,100,0.19,,,0.45,,2013-02-19 07:01:00,
2013-02-19 01:11:00,45.0,45.0,30.02,East,93,9.0,11.0,100,0.19,,,0.45,,2013-02-19 07:11:00,
2013-02-19 01:21:00,45.0,45.0,30.01,SSE,153,4.0,12.0,100,0.14,,,0.45,,2013-02-19 07:21:00,
2013-02-19 01:32:00,46.0,46.0,30.01,WSW,250,8.0,15.0,100,0.09,,,0.45,,2013-02-19 07:32:00,
2013-02-19 01:42:00,46.0,46.0,30.01,WSW,250,8.0,15.0,100,0.09,,,0.45,,2013-02-19 07:42:00,
2013-02-19 01:51:00,45.0,45.0,30.00,SSE,153,4.0,12.0,100,0.00,,,0.45,,2013-02-19 07:51:00,
2013-02-19 02:01:00,45.0,45.0,29.99,ESE,113,3.0,8.0,100,0.01,,,0.46,,2013-02-19 08:01:00,
2013-02-19 02:11:00,45.0,45.0,29.99,ESE,113,3.0,8.0,100,0.01,,,0.46,,2013-02-19 08:11:00,
2013-02-19 02:21:00,45.0,45.0,29.97,ESE,117,5.0,8.0,100,0.01,,,0.46,,2013-02-19 08:21:00,
2013-02-19 02:31:00,45.0,45.0,29.96,SSE,161,5.0,9.0,100,0.02,,,0.47,,2013-02-19 08:31:00,
2013-02-19 02:42:00,45.0,45.0,29.96,SSE,161,5.0,9.0,100,0.02,,,0.47,,2013-02-19 08:42:00,
2013-02-19 02:52:00,45.0,45.0,29.94,NE,50,4.0,10.0,100,0.02,,,0.47,,2013-02-19 08:52:00,
2013-02-19 03:01:00,46.0,46.0,29.95,East,99,3.0,7.0,100,0.02,,,0.48,,2013-02-19 09:01:00,
2013-02-19 03:11:00,46.0,46.0,29.95,East,99,3.0,7.0,100,0.02,,,0.48,,2013-02-19 09:11:00,
2013-02-19 03:21:00,46.0,46.0,29.94,East,99,3.0,6.0,100,0.02,,,0.48,,2013-02-19 09:21:00,
2013-02-19 03:31:00,46.0,46.0,29.94,East,99,6.0,7.0,100,0.01,,,0.48,,2013-02-19 09:31:00,
2013-02-19 03:42:00,46.0,46.0,29.94,East,99,6.0,7.0,100,0.01,,,0.48,,2013-02-19 09:42:00,
2013-02-19 03:52:00,47.0,47.0,29.95,SSW,197,6.0,10.0,100,0.01,,,0.48,,2013-02-19 09:52:00,
2013-02-19 04:01:00,47.0,47.0,29.95,North,0,4.0,6.0,100,0.01,,,0.48,,2013-02-19 10:01:00,
2013-02-19 04:11:00,47.0,47.0,29.95,North,0,4.0,6.0,100,0.01,,,0.48,,2013-02-19 10:11:00,
2013-02-19 04:21:00,48.0,48.0,29.95,NNW,335,5.0,8.0,100,0.01,,,0.49,,2013-02-19 10:21:00,
2013-02-19 04:31:00,48.0,48.0,29.96,SW,220,4.0,7.0,100,0.01,,,0.49,,2013-02-19 10:31:00,
2013-02-19 04:41:00,48.0,48.0,29.96,SW,220,4.0,7.0,100,0.01,,,0.49,,2013-02-19 10:41:00,
2013-02-19 04:52:00,47.0,47.0,29.96,ESE,118,4.0,9.0,100,0.01,,,0.49,,2013-02-19 10:52:00,
2013-02-19 05:01:00,47.0,47.0,29.97,NNW,341,4.0,6.0,100,0.02,,,0.50,,2013-02-19 11:01:00,
2013-02-19 05:11:00,48.0,48.0,29.98,North,356,3.0,10.0,100,0.02,,,0.51,,2013-02-19 11:11:00,
2013-02-19 05:21:00,48.0,48.0,29.98,North,356,3.0,10.0,100,0.02,,,0.51,,2013-02-19 11:21:00,
2013-02-19 05:32:00,48.0,48.0,29.98,NNW,328,8.0,14.0,100,0.02,,,0.51,,2013-02-19 11:32:00,
2013-02-19 05:42:00,48.0,48.0,29.98,NNW,328,8.0,14.0,100,0.02,,,0.51,,2013-02-19 11:42:00,
2013-02-19 05:52:00,48.0,48.0,29.99,West,272,8.0,10.0,100,0.02,,,0.51,,2013-02-19 11:52:00,
2013-02-19 06:01:00,49.0,49.0,30.00,NW,310,6.0,14.0,100,0.01,,,0.51,,2013-02-19 12:01:00,
2013-02-19 06:12:00,49.0,49.0,30.00,NW,310,6.0,14.0,100,0.01,,,0.51,,2013-02-19 12:12:00,
2013-02-19 06:22:00,49.0,49.0,30.01,NNW,338,11.0,15.0,100,0.00,,,0.51,,2013-02-19 12:22:00,
2013-02-19 06:32:00,49.0,49.0,30.02,NNW,330,13.0,21.0,100,0.00,,,0.51,,2013-02-19 12:32:00,
2013-02-19 06:42:00,49.0,49.0,30.02,NNW,330,13.0,21.0,100,0.00,,,0.51,,2013-02-19 12:42:00,
2013-02-19 06:52:00,47.0,47.0,30.03,NW,318,11.0,21.0,100,0.00,,,0.51,,2013-02-19 12:52:00,
2013-02-19 07:02:00,46.0,46.0,30.03,North,359,4.0,19.0,100,0.00,,,0.51,,2013-02-19 13:02:00,
2013-02-19 07:11:00,46.0,46.0,30.03,North,359,4.0,19.0,100,0.00,,,0.51,,2013-02-19 13:11:00,
2013-02-19 07:22:00,45.0,44.0,30.06,NNW,340,12.0,18.0,97,0.00,,,0.51,,2013-02-19 13:22:00,
2013-02-19 07:32:00,44.0,43.0,30.07,North,349,6.0,19.0,95,0.00,,,0.51,,2013-02-19 13:32:00,
2013-02-19 07:41:00,44.0,43.0,30.07,North,349,6.0,19.0,95,0.00,,,0.51,,2013-02-19 13:41:00,
2013-02-19 07:52:00,43.0,41.0,30.08,North,353,17.0,22.0,91,0.00,,,0.51,,2013-02-19 13:52:00,
2013-02-19 08:01:00,43.0,41.0,30.09,NNW,343,11.0,23.0,91,0.00,,,0.51,,2013-02-19 14:01:00,
2013-02-19 08:11:00,43.0,41.0,30.09,NNW,343,11.0,23.0,91,0.00,,,0.51,,2013-02-19 14:11:00,
2013-02-19 08:21:00,43.0,40.0,30.10,NW,326,10.0,18.0,89,0.00,,,0.51,,2013-02-19 14:21:00,
2013-02-19 08:32:00,43.0,39.0,30.11,NNW,343,11.0,18.0,87,0.00,,,0.51,,2013-02-19 14:32:00,
2013-02-19 08:42:00,43.0,39.0,30.11,NNW,343,11.0,18.0,87,0.00,,,0.51,,2013-02-19 14:42:00,
2013-02-19 08:52:00,44.0,40.0,30.10,NNW,327,8.0,16.0,85,0.00,,,0.51,,2013-02-19 14:52:00,
2013-02-19 09:01:00,44.0,39.0,30.11,NW,323,11.0,17.0,82,0.00,,,0.51,,2013-02-19 15:01:00,
2013-02-19 09:11:00,44.0,39.0,30.11,NW,323,11.0,17.0,82,0.00,,,0.51,,2013-02-19 15:11:00,
2013-02-19 09:21:00,45.0,40.0,30.11,NNW,340,8.0,18.0,81,0.00,,,0.51,,2013-02-19 15:21:00,
2013-02-19 09:31:00,45.0,39.0,30.11,NNW,333,13.0,13.0,80,0.00,,,0.51,,2013-02-19 15:31:00,
2013-02-19 09:42:00,45.0,39.0,30.11,NNW,333,13.0,13.0,80,0.00,,,0.51,,2013-02-19 15:42:00,
2013-02-19 09:52:00,46.0,39.0,30.12,North,356,6.0,15.0,77,0.00,,,0.51,,2013-02-19 15:52:00,
2013-02-19 10:01:00,46.0,40.0,30.12,NNW,340,8.0,15.0,79,0.00,,,0.51,,2013-02-19 16:01:00,
2013-02-19 10:11:00,46.0,40.0,30.12,NNW,340,8.0,15.0,79,0.00,,,0.51,,2013-02-19 16:11:00,
2013-02-19 10:21:00,46.0,37.0,30.13,WNW,293,1.0,17.0,71,0.00,,,0.51,,2013-02-19 16:21:00,
2013-02-19 10:32:00,47.0,37.0,30.14,NW,313,7.0,14.0,67,0.00,,,0.51,,2013-02-19 16:32:00,
2013-02-19 10:41:00,47.0,37.0,30.14,NW,313,7.0,14.0,67,0.00,,,0.51,,2013-02-19 16:41:00,
2013-02-19 10:52:00,48.0,39.0,30.14,NW,305,11.0,15.0,70,0.00,,,0.51,,2013-02-19 16:52:00,
2013-02-19 11:01:00,47.0,38.0,30.13,NW,309,12.0,17.0,70,0.00,,,0.51,,2013-02-19 17:01:00,
2013-02-19 11:11:00,47.0,38.0,30.13,NW,309,12.0,17.0,70,0.00,,,0.51,,2013-02-19 17:11:00,
2013-02-19 11:21:00,48.0,36.0,30.13,NW,313,7.0,19.0,63,0.00,,,0.51,,2013-02-19 17:21:00,
2013-02-19 11:32:00,49.0,35.0,30.13,NNW,340,12.0,21.0,59,0.00,,,0.51,,2013-02-19 17:32:00,
2013-02-19 11:41:00,50.0,34.0,30.13,NW,325,13.0,17.0,55,0.00,,,0.51,,2013-02-19 17:41:00,
2013-02-19 11:52:00,50.0,34.0,30.13,NW,325,13.0,17.0,55,0.00,,,0.51,,2013-02-19 17:52:00,
2013-02-19 12:01:00,50.0,34.0,30.13,NW,322,18.0,23.0,54,0.00,,,0.51,,2013-02-19 18:01:00,
2013-02-19 12:11:00,50.0,34.0,30.13,NW,322,18.0,23.0,54,0.00,,,0.51,,2013-02-19 18:11:00,
2013-02-19 12:21:00,50.0,32.0,30.12,NNW,328,21.0,25.0,49,0.00,,,0.51,,2013-02-19 18:21:00,
2013-02-19 12:31:00,50.0,31.0,30.12,WNW,291,15.0,22.0,47,0.00,,,0.51,,2013-02-19 18:31:00,
2013-02-19 12:41:00,50.0,28.0,30.11,North,352,14.0,26.0,42,0.00,,,0.51,,2013-02-19 18:41:00,
2013-02-19 12:52:00,50.0,28.0,30.11,North,352,14.0,26.0,42,0.00,,,0.51,,2013-02-19 18:52:00,
2013-02-19 13:01:00,51.0,30.0,30.11,NE,45,8.0,21.0,45,0.01,,,0.52,,2013-02-19 19:01:00,
2013-02-19 13:11:00,51.0,30.0,30.11,NE,45,8.0,21.0,45,0.01,,,0.52,,2013-02-19 19:11:00,
2013-02-19 13:21:00,51.0,27.0,30.11,NNW,345,12.0,26.0,39,0.01,,,0.52,,2013-02-19 19:21:00,
2013-02-19 13:31:00,50.0,27.0,30.11,NNW,333,13.0,28.0,40,0.01,,,0.52,,2013-02-19 19:31:00,
2013-02-19 13:41:00,50.0,27.0,30.11,NNW,333,13.0,28.0,40,0.01,,,0.52,,2013-02-19 19:41:00,
2013-02-19 13:52:00,51.0,26.0,30.11,NNW,327,19.0,28.0,38,0.01,,,0.52,,2013-02-19 19:52:00,
2013-02-19 14:01:00,51.0,26.0,30.12,NNW,344,13.0,24.0,37,0.00,,,0.52,,2013-02-19 20:01:00,
2013-02-19 14:12:00,51.0,26.0,30.12,NNW,344,13.0,24.0,37,0.00,,,0.52,,2013-02-19 20:12:00,
2013-02-19 14:21:00,51.0,26.0,30.11,NNW,334,15.0,21.0,37,0.00,,,0.52,,2013-02-19 20:21:00,
2013-02-19 14:32:00,51.0,26.0,30.12,NW,320,15.0,29.0,37,0.00,,,0.52,,2013-02-19 20:32:00,
2013-02-19 14:41:00,51.0,26.0,30.12,NW,320,15.0,29.0,37,0.00,,,0.52,,2013-02-19 20:41:00,
2013-02-19 14:52:00,51.0,27.0,30.12,NW,315,10.0,24.0,39,0.00,,,0.52,,2013-02-19 20:52:00,
2013-02-19 15:02:00,51.0,23.0,30.12,NW,309,14.0,21.0,33,0.00,,,0.52,,2013-02-19 21:02:00,
2013-02-19 15:11:00,51.0,23.0,30.12,NW,309,14.0,21.0,33,0.00,,,0.52,,2013-02-19 21:11:00,
2013-02-19 15:21:00,51.0,24.0,30.13,NW,309,14.0,27.0,34,0.00,,,0.52,,2013-02-19 21:21:00,
2013-02-19 15:32:00,51.0,23.0,30.14,NNW,337,11.0,21.0,33,0.00,,,0.52,,2013-02-19 21:32:00,
2013-02-19 15:42:00,51.0,23.0,30.14,NNW,337,11.0,21.0,33,0.00,,,0.52,,2013-02-19 21:42:00,
2013-02-19 15:52:00,51.0,22.0,30.14,NW,315,20.0,25.0,32,0.00,,,0.52,,2013-02-19 21:52:00,
2013-02-19 16:02:00,50.0,22.0,30.14,NNW,337,10.0,21.0,33,0.00,,,0.52,,2013-02-19 22:02:00,
2013-02-19 16:11:00,50.0,22.0,30.14,NNW,337,10.0,21.0,33,0.00,,,0.52,,2013-02-19 22:11:00,
2013-02-19 16:21:00,50.0,22.0,30.15,NNW,347,13.0,21.0,33,0.00,,,0.52,,2013-02-19 22:21:00,
2013-02-19 16:32:00,50.0,22.0,30.16,NW,318,10.0,23.0,33,0.00,,,0.52,,2013-02-19 22:32:00,
2013-02-19 16:41:00,50.0,22.0,30.16,NW,318,10.0,23.0,33,0.00,,,0.52,,2013-02-19 22:41:00,
2013-02-19 16:51:00,50.0,23.0,30.15,NNW,345,11.0,18.0,34,0.00,,,0.52,,2013-02-19 22:51:00,
2013-02-19 17:01:00,49.0,19.0,30.16,NW,319,22.0,22.0,30,0.00,,,0.52,,2013-02-19 23:01:00,
2013-02-19 17:11:00,49.0,19.0,30.16,NW,319,22.0,22.0,30,0.00,,,0.52,,2013-02-19 23:11:00,
2013-02-19 17:21:00,49.0,19.0,30.16,NW,321,12.0,23.0,30,0.00,,,0.52,,2013-02-19 23:21:00,
2013-02-19 17:32:00,48.0,20.0,30.16,North,351,9.0,19.0,33,0.00,,,0.52,,2013-02-19 23:32:00,
2013-02-19 17:41:00,48.0,20.0,30.16,North,351,9.0,19.0,33,0.00,,,0.52,,2013-02-19 23:41:00,
2013-02-19 17:52:00,48.0,20.0,30.17,NNW,346,12.0,17.0,33,0.00,,,0.52,,2013-02-19 23:52:00,
2013-02-19 18:01:00,48.0,22.0,30.17,North,356,7.0,14.0,35,0.00,,,0.52,,2013-02-20 00:01:00,
2013-02-19 18:11:00,48.0,22.0,30.17,North,356,7.0,14.0,35,0.00,,,0.52,,2013-02-20 00:11:00,
2013-02-19 18:21:00,47.0,21.0,30.17,North,353,3.0,13.0,36,0.00,,,0.52,,2013-02-20 00:21:00,
2013-02-19 18:31:00,46.0,22.0,30.18,NNW,330,4.0,9.0,38,0.00,,,0.52,,2013-02-20 00:31:00,
2013-02-19 18:41:00,46.0,22.0,30.18,NNW,330,4.0,9.0,38,0.00,,,0.52,,2013-02-20 00:41:00,
2013-02-19 18:52:00,46.0,22.0,30.18,North,357,5.0,9.0,38,0.00,,,0.52,,2013-02-20 00:52:00,
2013-02-19 19:02:00,45.0,22.0,30.17,WNW,301,5.0,11.0,40,0.00,,,0.52,,2013-02-20 01:02:00,
2013-02-19 19:11:00,45.0,22.0,30.17,WNW,301,5.0,11.0,40,0.00,,,0.52,,2013-02-20 01:11:00,
2013-02-19 19:21:00,44.0,22.0,30.17,NNW,330,12.0,14.0,41,0.00,,,0.52,,2013-02-20 01:21:00,
2013-02-19 19:32:00,44.0,22.0,30.18,NNW,337,6.0,13.0,42,0.00,,,0.52,,2013-02-20 01:32:00,
2013-02-19 19:42:00,44.0,22.0,30.18,NNW,337,6.0,13.0,42,0.00,,,0.52,,2013-02-20 01:42:00,
2013-02-19 19:52:00,43.0,22.0,30.18,NW,306,3.0,9.0,43,0.00,,,0.52,,2013-02-20 01:52:00,
2013-02-19 20:01:00,43.0,23.0,30.19,NNW,347,6.0,16.0,44,0.00,,,0.52,,2013-02-20 02:01:00,
2013-02-19 20:11:00,43.0,23.0,30.19,NNW,347,6.0,16.0,44,0.00,,,0.52,,2013-02-20 02:11:00,
2013-02-19 20:21:00,43.0,23.0,30.19,NW,310,5.0,13.0,45,0.00,,,0.52,,2013-02-20 02:21:00,
2013-02-19 20:31:00,42.0,23.0,30.19,NNW,347,9.0,12.0,47,0.00,,,0.52,,2013-02-20 02:31:00,
2013-02-19 20:42:00,42.0,23.0,30.19,NNW,347,9.0,12.0,47,0.00,,,0.52,,2013-02-20 02:42:00,
2013-02-19 20:52:00,42.0,24.0,30.20,North,353,9.0,14.0,48,0.00,,,0.52,,2013-02-20 02:52:00,
2013-02-19 21:01:00,41.0,24.0,30.22,North,357,10.0,12.0,50,0.00,,,0.52,,2013-02-20 03:01:00,
2013-02-19 21:12:00,41.0,24.0,30.22,North,357,10.0,12.0,50,0.00,,,0.52,,2013-02-20 03:12:00,
2013-02-19 21:22:00,41.0,24.0,30.22,NNW,332,6.0,13.0,50,0.00,,,0.52,,2013-02-20 03:22:00,
2013-02-19 21:32:00,41.0,24.0,30.23,NNW,333,6.0,10.0,51,0.00,,,0.52,,2013-02-20 03:32:00,
2013-02-19 21:41:00,41.0,24.0,30.23,NNW,333,6.0,10.0,51,0.00,,,0.52,,2013-02-20 03:41:00,
2013-02-19 21:51:00,40.0,24.0,30.24,North,357,3.0,10.0,53,0.00,,,0.52,,2013-02-20 03:51:00,
2013-02-19 22:01:00,40.0,24.0,30.23,North,0,5.0,10.0,53,0.00,,,0.52,,2013-02-20 04:01:00,
2013-02-19 22:11:00,40.0,24.0,30.23,North,0,5.0,10.0,53,0.00,,,0.52,,2013-02-20 04:11:00,
2013-02-19 22:21:00,39.0,24.0,30.23,North,0,3.0,9.0,54,0.00,,,0.52,,2013-02-20 04:21:00,
2013-02-19 22:31:00,39.0,24.0,30.22,NNW,348,6.0,7.0,55,0.00,,,0.52,,2013-02-20 04:31:00,
2013-02-19 22:41:00,39.0,24.0,30.22,NNW,348,6.0,7.0,55,0.00,,,0.52,,2013-02-20 04:41:00,
2013-02-19 22:52:00,39.0,24.0,30.22,North,0,4.0,5.0,55,0.00,,,0.51,,2013-02-20 04:52:00,
2013-02-19 23:02:00,38.0,24.0,30.22,North,0,2.0,6.0,56,0.00,,,0.50,,2013-02-20 05:02:00,
2013-02-19 23:12:00,38.0,24.0,30.22,North,0,2.0,6.0,56,0.00,,,0.50,,2013-02-20 05:12:00,
2013-02-19 23:22:00,38.0,25.0,30.23,North,0,2.0,3.0,58,0.00,,,0.49,,2013-02-20 05:22:00,
2013-02-19 23:32:00,38.0,25.0,30.22,North,0,0.0,3.0,58,0.00,,,0.46,,2013-02-20 05:32:00,
2013-02-19 23:43:00,38.0,25.0,30.22,North,0,0.0,3.0,58,0.00,,,0.46,,2013-02-20 05:43:00,
2013-02-19 23:52:00,37.0,24.0,30.23,NW,313,0.0,4.0,60,0.00,,,0.37,,2013-02-20 05:52:00,